Weather in Dalneye

Russia / Tomsk District     58°43′15″N   82°56′12″E
temp.,
°C
wind,
m/s
gust,
m/s
humid.,
%
clouds,
%
prec.,
mm/h
press.,
hPa
HPBL,
m
9 march, tue
tue901:00−10w61389100 0.6 1006824
04:00−13wsw41292100 0.0 1009546
07:00−13wsw41194100 0.1 1012496
10:00−10sw51092100 0.2 1015738
13:00−9sw5988100 0.4 1015848
16:00−8sw61092100 0.3 10151055
19:00−9ssw51192100 0.6 1014717
22:00−10ssw51192100 0.1 1014597
10 march, wed
wed1001:00−10ssw51195100 1.3 1012706
04:00−10sw51093100 1.4 1010751
07:00−10sw41095100 2.0 1010609
10:00−10sw4893100 0.3 1012501
13:00−8ssw3693100 0.4 1012493
16:00−7ssw3592100 0.1 1012557
19:00−7s2593100 0.2 1011358
22:00−9se2497100 0.1 1009141
11 march, thu
thu1101:00−9ese2696100 0.6 1005236
04:00−8ene4894100 1.3 1001333
07:00−8ne4995100 2.0 998412
10:00−7nne3795100 1.4 998416
13:00−6wnw3594100 2.8 1000500
16:00−6wsw5890100 0.4 1004775
19:00−7ssw1297100 0.6 100655
22:00−8sw51290100 0.6 1008840
12 march, fri
fri1201:00−12ssw3995100 0.6 1008279
04:00−11se2696100 0.1 1004214
07:00−11ne1197100 1.1 100227
10:00−10w4894100 0.4 1003483
13:00−9wsw5988100 0.7 10061054
16:00−8wsw5883100 0.2 10091224
19:00−11sw5994100 0.7 1010703
22:00−15sw41292100 0.3 1012455
13 march, sat
sat1301:00−19sw3610094 0.3 1013116
04:00−21sw2510096 0.0 101387
07:00−23wsw2310099 0.1 101576
10:00−19wsw379795 0.0 1016309
13:00−16sw599197 0.0 1016535
16:00−14sw61187100 0.0 1017682
19:00−14sw51292100 0.1 1018841
22:00−14wsw51292100 0.3 1019839